When you browse on this site, cookies collect data to enhance your experience and personalize the content and advertising you see.
Visit our Privacy Policy to learn more. By continuing to use the site, you agree to this use of cookies and data.
  • In Deutschland
  • Länderverzeichnis
  • Für 7 Tage
  • Wassertemperatur
  • Satellitenkarten
  • Wetterkarte
  • Widgets
  • user-avatar
    Anmelden

    Stündliche Wetter Haifa

    Heute, 17 Dezember, Montag

    Zeit Temperatur Niederschläge Wind Luftdruck Luftfeuchtigkeit
    00:00 +17°C° 0 mm 3 m/S 759 mmHg 67%
    01:00 +17°C° 0 mm 3 m/S 759 mmHg 68%
    02:00 +16°C° 0 mm 3 m/S 758 mmHg 70%
    03:00 +16°C° 0 mm 3 m/S 758 mmHg 70%
    04:00 +16°C° 0 mm 3 m/S 758 mmHg 70%
    05:00 +16°C° 0 mm 3 m/S 758 mmHg 71%
    06:00 +16°C° 0 mm 3 m/S 759 mmHg 69%
    07:00 +15°C° 0 mm 4 m/S 759 mmHg 67%
    08:00 +17°C° 0 mm 4 m/S 758 mmHg 63%
    09:00 +17°C° 0.3 mm 5 m/S 758 mmHg 60%
    10:00 +19°C° 0.3 mm 6 m/S 759 mmHg 57%
    11:00 +20°C° 0.3 mm 7 m/S 759 mmHg 54%
    12:00 +20°C° 1.1 mm 7 m/S 759 mmHg 56%
    13:00 +20°C° 1.1 mm 8 m/S 759 mmHg 59%
    14:00 +18°C° 1.1 mm 8 m/S 759 mmHg 62%
    15:00 +18°C° 0.9 mm 7 m/S 759 mmHg 66%
    16:00 +17°C° 0.9 mm 7 m/S 759 mmHg 70%
    17:00 +16°C° 0.9 mm 7 m/S 759 mmHg 74%
    18:00 +16°C° 0.8 mm 6 m/S 759 mmHg 74%
    19:00 +16°C° 0.8 mm 6 m/S 759 mmHg 75%
    20:00 +15°C° 0.8 mm 5 m/S 760 mmHg 75%
    21:00 +16°C° 0.4 mm 5 m/S 760 mmHg 74%
    22:00 +16°C° 0.4 mm 5 m/S 760 mmHg 73%
    23:00 +17°C° 0.4 mm 4 m/S 761 mmHg 72%

    Morgen, 18 Dezember, Dienstag

    Zeit Temperatur Niederschläge Wind Luftdruck Luftfeuchtigkeit
    00:00 +17°C° 0.3 mm 4 m/S 761 mmHg 73%
    01:00 +17°C° 0.3 mm 4 m/S 761 mmHg 74%
    02:00 +17°C° 0.3 mm 4 m/S 761 mmHg 75%
    03:00 +15°C° 0.3 mm 4 m/S 761 mmHg 77%
    04:00 +15°C° 0.3 mm 4 m/S 761 mmHg 78%
    05:00 +15°C° 0.3 mm 4 m/S 761 mmHg 80%
    06:00 +15°C° 0.2 mm 4 m/S 761 mmHg 80%
    07:00 +17°C° 0.2 mm 4 m/S 762 mmHg 81%
    08:00 +17°C° 0.2 mm 4 m/S 762 mmHg 82%
    09:00 +17°C° 0.2 mm 4 m/S 762 mmHg 80%
    10:00 +18°C° 0.2 mm 4 m/S 762 mmHg 78%
    11:00 +17°C° 0.2 mm 5 m/S 762 mmHg 76%
    12:00 +17°C° 0.3 mm 5 m/S 762 mmHg 74%
    13:00 +19°C° 0.3 mm 5 m/S 761 mmHg 72%
    14:00 +19°C° 0.3 mm 5 m/S 761 mmHg 70%
    15:00 +19°C° 0.3 mm 5 m/S 761 mmHg 72%
    16:00 +17°C° 0.3 mm 5 m/S 761 mmHg 74%
    17:00 +17°C° 0.3 mm 5 m/S 761 mmHg 76%
    18:00 +16°C° 0.2 mm 5 m/S 761 mmHg 77%
    19:00 +17°C° 0.2 mm 4 m/S 761 mmHg 77%
    20:00 +15°C° 0.2 mm 4 m/S 761 mmHg 78%
    21:00 +15°C° 0 mm 4 m/S 761 mmHg 78%
    22:00 +15°C° 0 mm 4 m/S 761 mmHg 78%
    23:00 +15°C° 0 mm 5 m/S 761 mmHg 78%

    übermorgen, 19 Dezember, Mittwoch

    Zeit Temperatur Niederschläge Wind Luftdruck Luftfeuchtigkeit
    00:00 +15°C° 0 mm 5 m/S 760 mmHg 77%
    01:00 +15°C° 0 mm 5 m/S 760 mmHg 76%
    02:00 +14°C° 0 mm 5 m/S 760 mmHg 75%
    03:00 +14°C° 0.1 mm 5 m/S 760 mmHg 75%
    04:00 +14°C° 0.1 mm 6 m/S 759 mmHg 74%
    05:00 +14°C° 0.1 mm 6 m/S 759 mmHg 74%
    06:00 +14°C° 0.6 mm 6 m/S 759 mmHg 72%
    07:00 +15°C° 0.6 mm 6 m/S 759 mmHg 70%
    08:00 +15°C° 0.6 mm 6 m/S 760 mmHg 68%
    09:00 +16°C° 1.1 mm 7 m/S 759 mmHg 67%
    10:00 +17°C° 1.1 mm 7 m/S 759 mmHg 66%
    11:00 +18°C° 1.1 mm 8 m/S 759 mmHg 65%
    12:00 +18°C° 0.7 mm 8 m/S 759 mmHg 63%
    13:00 +18°C° 0.7 mm 8 m/S 758 mmHg 62%
    14:00 +18°C° 0.7 mm 8 m/S 758 mmHg 61%
    15:00 +17°C° 0.8 mm 8 m/S 758 mmHg 66%
    16:00 +16°C° 0.8 mm 8 m/S 758 mmHg 70%
    17:00 +15°C° 0.8 mm 7 m/S 758 mmHg 74%
    18:00 +15°C° 1 mm 7 m/S 758 mmHg 75%
    19:00 +15°C° 1 mm 7 m/S 759 mmHg 77%
    20:00 +15°C° 1 mm 7 m/S 759 mmHg 79%
    21:00 +14°C° 1.4 mm 7 m/S 759 mmHg 80%
    22:00 +14°C° 1.4 mm 6 m/S 759 mmHg 81%
    23:00 +14°C° 1.4 mm 6 m/S 759 mmHg 82%

    20 Dezember, Donnerstag

    Zeit Temperatur Niederschläge Wind Luftdruck Luftfeuchtigkeit
    00:00 +14°C° 1.5 mm 6 m/S 759 mmHg 83%
    01:00 +14°C° 1.5 mm 7 m/S 758 mmHg 83%
    02:00 +14°C° 1.5 mm 7 m/S 758 mmHg 84%
    03:00 +14°C° 1.2 mm 7 m/S 758 mmHg 84%
    04:00 +14°C° 1.2 mm 7 m/S 759 mmHg 84%
    05:00 +13°C° 1.2 mm 8 m/S 759 mmHg 84%
    06:00 +14°C° 0.6 mm 7 m/S 759 mmHg 82%
    07:00 +14°C° 0.6 mm 7 m/S 760 mmHg 81%
    08:00 +15°C° 0.6 mm 7 m/S 760 mmHg 79%
    09:00 +15°C° 0.3 mm 7 m/S 760 mmHg 75%
    10:00 +16°C° 0.3 mm 7 m/S 761 mmHg 71%
    11:00 +17°C° 0.3 mm 7 m/S 761 mmHg 67%
    12:00 +17°C° 0.2 mm 7 m/S 761 mmHg 67%
    13:00 +17°C° 0.2 mm 7 m/S 760 mmHg 67%
    14:00 +17°C° 0.2 mm 7 m/S 760 mmHg 67%
    15:00 +16°C° 0.2 mm 6 m/S 760 mmHg 70%
    16:00 +16°C° 0.2 mm 6 m/S 761 mmHg 73%
    17:00 +15°C° 0.2 mm 5 m/S 761 mmHg 76%
    18:00 +15°C° 0.4 mm 5 m/S 761 mmHg 76%
    19:00 +15°C° 0.4 mm 5 m/S 762 mmHg 77%
    20:00 +14°C° 0.4 mm 5 m/S 762 mmHg 78%
    21:00 +14°C° 0.7 mm 4 m/S 762 mmHg 79%
    22:00 +14°C° 0.7 mm 4 m/S 762 mmHg 80%
    23:00 +14°C° 0.7 mm 4 m/S 762 mmHg 81%

    21 Dezember, Freitag

    Zeit Temperatur Niederschläge Wind Luftdruck Luftfeuchtigkeit
    00:00 +14°C° 0.5 mm 3 m/S 762 mmHg 82%
    01:00 +14°C° 0.5 mm 3 m/S 762 mmHg 83%
    02:00 +14°C° 0.5 mm 3 m/S 763 mmHg 83%
    03:00 +13°C° 0.1 mm 3 m/S 763 mmHg 84%
    04:00 +13°C° 0.1 mm 3 m/S 763 mmHg 85%
    05:00 +13°C° 0.1 mm 3 m/S 763 mmHg 86%
    06:00 +14°C° 0 mm 2 m/S 763 mmHg 85%
    07:00 +15°C° 0 mm 2 m/S 764 mmHg 84%
    08:00 +15°C° 0 mm 2 m/S 764 mmHg 84%
    09:00 +16°C° 0 mm 2 m/S 764 mmHg 79%
    10:00 +18°C° 0 mm 1 m/S 764 mmHg 74%
    11:00 +19°C° 0 mm 1 m/S 764 mmHg 69%
    12:00 +19°C° 0 mm 1 m/S 764 mmHg 67%
    13:00 +19°C° 0 mm 2 m/S 764 mmHg 65%
    14:00 +19°C° 0 mm 2 m/S 763 mmHg 63%
    15:00 +18°C° 0 mm 2 m/S 763 mmHg 66%
    16:00 +17°C° 0 mm 2 m/S 763 mmHg 70%
    17:00 +16°C° 0 mm 2 m/S 763 mmHg 74%
    18:00 +16°C° 0 mm 1 m/S 764 mmHg 75%
    19:00 +16°C° 0 mm 1 m/S 764 mmHg 75%
    20:00 +15°C° 0 mm 1 m/S 764 mmHg 76%
    21:00 +15°C° 0 mm 1 m/S 764 mmHg 77%
    22:00 +15°C° 0 mm 1 m/S 764 mmHg 78%
    23:00 +15°C° 0 mm 1 m/S 764 mmHg 79%

    22 Dezember, Samstag

    Zeit Temperatur Niederschläge Wind Luftdruck Luftfeuchtigkeit
    00:00 +14°C° 0 mm 1 m/S 764 mmHg 80%
    01:00 +14°C° 0 mm 1 m/S 764 mmHg 80%
    02:00 +14°C° 0 mm 1 m/S 763 mmHg 80%
    03:00 +14°C° 0.1 mm 2 m/S 763 mmHg 80%
    04:00 +14°C° 0.1 mm 2 m/S 763 mmHg 80%
    05:00 +14°C° 0.1 mm 2 m/S 763 mmHg 80%
    06:00 +14°C° 0.2 mm 2 m/S 763 mmHg 79%
    07:00 +14°C° 0.2 mm 3 m/S 763 mmHg 78%
    08:00 +14°C° 0.2 mm 3 m/S 764 mmHg 77%
    09:00 +16°C° 0.1 mm 3 m/S 764 mmHg 76%
    10:00 +15°C° 0.1 mm 4 m/S 763 mmHg 75%
    11:00 +17°C° 0.1 mm 4 m/S 763 mmHg 74%
    12:00 +17°C° 0.1 mm 4 m/S 763 mmHg 71%
    13:00 +17°C° 0.1 mm 5 m/S 763 mmHg 69%
    14:00 +17°C° 0.1 mm 5 m/S 762 mmHg 66%
    15:00 +16°C° 0.1 mm 5 m/S 763 mmHg 69%
    16:00 +16°C° 0.1 mm 5 m/S 763 mmHg 72%
    17:00 +15°C° 0.1 mm 4 m/S 763 mmHg 75%
    18:00 +15°C° 0.1 mm 4 m/S 763 mmHg 75%
    19:00 +15°C° 0.1 mm 4 m/S 763 mmHg 74%
    20:00 +16°C° 0.1 mm 3 m/S 763 mmHg 74%
    21:00 +16°C° 0 mm 3 m/S 763 mmHg 74%
    22:00 +16°C° 0 mm 3 m/S 763 mmHg 74%
    23:00 +16°C° 0 mm 2 m/S 763 mmHg 74%
    Mehr zeigen